Location: Anciles
(42.5833°N, 0.5167°E)
Time: 01:32:26
(UTC+00:00)

Sich 1 Rocket - Pass Details

Date: 10 December 2019
Orbit: 617 x 652 km, 82.5° (Epoch: 27 January)

Event Time Altitude Azimuth Distance (km) Brightness Sun altitude
Rises 18:18:30 0° 353° (N) 2,909 7.0 -20.2°
Reaches altitude 10° 18:20:44 10° 354° (N) 1,995 6.1 -20.6°
Maximum altitude 18:25:10 79° 82° (E) 634 3.4 -21.4°
Drops below altitude 10° 18:29:32 10° 169° (S) 1,973 6.1 -22.2°
Sets 18:31:44 0° 171° (S) 2,874 7.0 -22.6°
